Cherokee Lake Weather Center

Moon Phase Calendar



Cherokee Lake Water Level
Online Cameras

 


      

Current Conditions in Morristown
6/19/2024 1:00:16 PM

82°F
Feels Like 84
Clear
Humidity
62%
Pressure
30.27"
Wind
8 mph (SSE)
Dew Point
67°F
UV Index
10/10 (Very High)
Visibility
6 mi

Hourly Forecast

Date & Time Wed, Jun 19
1:00 PM
Wed, Jun 19
2:00 PM
Wed, Jun 19
3:00 PM
Wed, Jun 19
4:00 PM
Wed, Jun 19
5:00 PM
Wed, Jun 19
6:00 PM
Wed, Jun 19
7:00 PM
Wed, Jun 19
8:00 PM
Wed, Jun 19
9:00 PM
Wed, Jun 19
10:00 PM
Wed, Jun 19
11:00 PM
Thu, Jun 20
12:00 AM
Thu, Jun 20
1:00 AM
Thu, Jun 20
2:00 AM
Thu, Jun 20
3:00 AM
Thu, Jun 20
4:00 AM
Thu, Jun 20
5:00 AM
Thu, Jun 20
6:00 AM
Thu, Jun 20
7:00 AM
Thu, Jun 20
8:00 AM
Thu, Jun 20
9:00 AM
Thu, Jun 20
10:00 AM
Thu, Jun 20
11:00 AM
Thu, Jun 20
12:00 PM
Thu, Jun 20
1:00 PM
Thu, Jun 20
2:00 PM
Thu, Jun 20
3:00 PM
Thu, Jun 20
4:00 PM
Thu, Jun 20
5:00 PM
Thu, Jun 20
6:00 PM
Thu, Jun 20
7:00 PM
Thu, Jun 20
8:00 PM
Thu, Jun 20
9:00 PM
Thu, Jun 20
10:00 PM
Thu, Jun 20
11:00 PM
Fri, Jun 21
12:00 AM
Fri, Jun 21
1:00 AM
Fri, Jun 21
2:00 AM
Fri, Jun 21
3:00 AM
Fri, Jun 21
4:00 AM
Fri, Jun 21
5:00 AM
Fri, Jun 21
6:00 AM
Fri, Jun 21
7:00 AM
Fri, Jun 21
8:00 AM
Fri, Jun 21
9:00 AM
Fri, Jun 21
10:00 AM
Fri, Jun 21
11:00 AM
Fri, Jun 21
12:00 PM
Condition
Clear

Clouds

Clouds

Clouds

Clouds

Clouds

Clouds

Clouds

Clouds

Clouds

Clouds

Clouds

Clouds

Clouds

Clouds

Clouds

Clouds

Clouds

Clouds

Clouds

Clouds

Clouds

Clouds

Clouds

Clouds

Clouds

Clouds

Clouds

Clouds

Clouds

Clouds

Clouds

Clear

Clear

Clouds

Clouds

Clouds

Clear

Clear

Clear

Clear

Clear

Clear

Clear

Clear

Clear

Clear

Clear
Temperature 82°F82°F83°F84°F85°F85°F82°F78°F75°F74°F74°F73°F70°F67°F66°F65°F64°F63°F65°F68°F72°F75°F78°F81°F84°F86°F87°F87°F88°F88°F87°F81°F76°F74°F73°F73°F71°F69°F68°F67°F66°F65°F66°F70°F74°F78°F81°F84°F
Feels Like 84°F84°F85°F85°F86°F87°F85°F78°F75°F74°F74°F73°F70°F67°F65°F65°F64°F64°F65°F68°F72°F75°F79°F83°F85°F86°F87°F88°F88°F89°F91°F83°F76°F74°F73°F73°F71°F69°F68°F67°F66°F65°F66°F70°F74°F78°F83°F87°F
Cloudiness 0%18%36%35%48%61%71%76%100%78%87%90%93%92%41%24%31%43%52%59%94%90%87%79%74%62%30%49%56%44%36%30%1%6%11%13%11%9%0%0%0%0%0%0%0%0%0%0%
Visibility 6 mi6 mi6 mi6 mi6 mi6 mi6 mi6 mi6 mi6 mi6 mi6 mi6 mi6 mi6 mi6 mi6 mi6 mi6 mi6 mi6 mi6 mi6 mi6 mi6 mi6 mi6 mi6 mi6 mi6 mi6 mi6 mi6 mi6 mi6 mi6 mi6 mi6 mi6 mi6 mi6 mi6 mi6 mi6 mi6 mi6 mi6 mi6 mi
Precipitation 0%0%0%0%0%0%0%0%0%0%0%0%0%0%0%0%0%0%0%0%0%0%0%0%0%0%0%0%0%0%0%0%0%0%0%0%0%0%0%0%0%0%0%0%0%0%0%0%
Humidity 62%59%56%51%49%51%62%67%69%60%52%52%59%69%77%82%85%87%84%78%69%63%58%53%49%45%43%42%41%43%55%61%64%67%68%69%70%72%74%77%80%83%83%76%69%64%60%56%
Dew Point 67°F66°F66°F64°F64°F65°F68°F66°F64°F59°F56°F55°F55°F57°F58°F59°F60°F60°F60°F61°F61°F62°F63°F63°F63°F62°F62°F62°F61°F63°F69°F67°F63°F62°F62°F62°F61°F60°F60°F60°F60°F60°F61°F62°F63°F65°F66°F67°F
Pressure 30.27"30.27"30.24"30.24"30.21"30.18"30.18"30.18"30.21"30.21"30.24"30.24"30.24"30.24"30.24"30.24"30.27"30.27"30.3"30.3"30.33"30.3"30.3"30.3"30.27"30.24"30.24"30.21"30.21"30.18"30.18"30.18"30.18"30.21"30.21"30.21"30.21"30.21"30.21"30.21"30.21"30.24"30.24"30.24"30.24"30.24"30.21"30.21"
Wind Speed 6.8 mph5.5 mph6.9 mph5.7 mph5 mph5.8 mph4.2 mph4 mph4.7 mph6.7 mph8.2 mph7 mph5.2 mph6.6 mph6.2 mph5.4 mph3.9 mph3.4 mph3.4 mph3.3 mph3.6 mph4.4 mph4.7 mph4.3 mph4.6 mph4.1 mph4.2 mph3.8 mph2.9 mph3.6 mph3.1 mph3 mph2.1 mph0.3 mph1.5 mph3 mph4 mph3.6 mph2.8 mph3 mph3.1 mph2.8 mph1.9 mph1.7 mph1.8 mph2.2 mph2.5 mph2.2 mph
Wind
Direction
93°
E
69°
ENE
75°
ENE
72°
ENE
71°
ENE
78°
ENE
87°
E
111°
ESE
123°
ESE
124°
SE
143°
SE
138°
SE
91°
E
70°
ENE
74°
ENE
69°
ENE
69°
ENE
74°
ENE
63°
ENE
80°
E
91°
E
105°
ESE
112°
ESE
114°
ESE
114°
ESE
118°
ESE
123°
ESE
119°
ESE
83°
E
79°
E
107°
ESE
149°
SSE
178°
S
135°
SE
78°
ENE
49°
NE
64°
ENE
92°
E
101°
E
94°
E
77°
ENE
75°
ENE
74°
ENE
88°
E
119°
ESE
156°
SSE
171°
S
200°
SSW

Daily Forecast

Date High Low Precip. Humidity
Today
Jun 19

Clear
85 °F
63 °F
0%
62%
Thursday
Jun 20

Clouds
88 °F
63 °F
0%
49%
Friday
Jun 21

Clear
90 °F
65 °F
0%
53%
Saturday
Jun 22

Clear
89 °F
69 °F
0%
51%
Sunday
Jun 23

Rain
90 °F
70 °F
33%
43%
Monday
Jun 24

Rain
88 °F
68 °F
100%
45%
Tuesday
Jun 25

Rain
89 °F
63 °F
100%
45%
Wednesday
Jun 26

Rain
88 °F
64 °F
100%
59%
Thursday
Jun 27

Rain
87 °F
66 °F
77%
50%
Friday
Jun 28

Rain
87 °F
64 °F
65%
52%
Saturday
Jun 29

Rain
84 °F
70 °F
100%
67%
Sunday
Jun 30

Rain
86 °F
70 °F
100%
64%
Monday
Jul 1

Rain
76 °F
61 °F
100%
92%
Tuesday
Jul 2

Clouds
83 °F
55 °F
0%
39%
Wednesday
Jul 3

Clouds
83 °F
63 °F
0%
48%
Thursday
Jul 4

Clear
84 °F
63 °F
0%
43%

Temperature 8-14 Day Outlook



Precipitation 8-14 Day Outlook






About Us
Contact Us
Site Map
Search Site
Advertise With Us
   
www.CherokeeLake.info
THE CHEROKEE LAKE WEBSITE

Copyright 2024, Lakes Online
Privacy    |    Legal